This is the latest recevied weather packets stored in our database for station/object DC7RY. If no packets are shown the sender has not sent any weather packets the latest 10 day(s).
| Time | Temp. | Humidity | Pressure | Rain* | Wind** | Luminosity | Snow |
|---|---|---|---|---|---|---|---|
| 1777111828 | 16.11° C | 40% | 1011.3 hPa | 0 mm | - | 255 W/m² | - |
| 1777111220 | 16.11° C | 40% | 1011.3 hPa | 0 mm | - | 192 W/m² | - |
| 1777110628 | 15.56° C | 42% | 1011.5 hPa | 0 mm | - | 166 W/m² | - |
| 1777110020 | 15° C | 43% | 1011.5 hPa | 0 mm | - | 103 W/m² | - |
| 1777109428 | 15° C | 41% | 1011.8 hPa | 0 mm | - | 119 W/m² | - |
| 1777108820 | 14.44° C | 44% | 1012 hPa | 0 mm | - | 145 W/m² | - |
| 1777108228 | 14.44° C | 46% | 1012 hPa | 0 mm | - | 156 W/m² | - |
| 1777107620 | 13.89° C | 44% | 1012 hPa | 0 mm | - | 135 W/m² | - |
| 1777107028 | 13.33° C | 51% | 1012.3 hPa | 0 mm | - | 73 W/m² | - |
| 1777106420 | 12.78° C | 51% | 1012.2 hPa | 0 mm | - | 83 W/m² | - |
| 1777105828 | 12.22° C | 45% | 1012 hPa | 0 mm | - | 111 W/m² | - |
| 1777105220 | 11.67° C | 49% | 1012 hPa | 0 mm | - | 50 W/m² | - |
| 1777104628 | 11.11° C | 56% | 1012.3 hPa | 0 mm | - | 52 W/m² | - |
| 1777104020 | 11.11° C | 60% | 1012.3 hPa | 0 mm | - | 45 W/m² | - |
| 1777103428 | 11.11° C | 63% | 1011.9 hPa | 0 mm | - | 44 W/m² | - |
| 1777102820 | 11.11° C | 71% | 1012 hPa | 0 mm | - | 43 W/m² | - |
| 1777102228 | 10.56° C | 71% | 1012 hPa | 0 mm | - | 43 W/m² | - |
| 1777101620 | 10° C | 70% | 1012 hPa | 0 mm | - | 45 W/m² | - |
| 1777101028 | 8.89° C | 72% | 1012.1 hPa | 0 mm | - | 83 W/m² | - |
| 1777100420 | 7.78° C | 80% | 1012.1 hPa | 0 mm | - | 82 W/m² | - |
| 1777099828 | 6.67° C | 83% | 1012 hPa | 0 mm | - | 57 W/m² | - |
| 1777099220 | 5.56° C | 89% | 1011.8 hPa | 0 mm | - | 47 W/m² | - |
| 1777098628 | 5° C | 95% | 1011.8 hPa | 0 mm | - | 41 W/m² | - |
| 1777098020 | 4.44° C | 99% | 1011.8 hPa | 0 mm | - | 34 W/m² | - |
| 1777097428 | 3.89° C | 99% | 1011.8 hPa | 0 mm | - | 32 W/m² | - |
* Rain latest hour (hover to see other rain measurements)
** Current wind speed in m/s (hover to see current wind gust speed)